Location: Brede
(50.9167°N, 0.6000°E)
Time: 02:30:55
(UTC+00:00)

Cosmos 2219 Rocket - Pass Details

Date: 08 August 2020
Orbit: 826 x 848 km, 71.0° (Epoch: 18 September)

Event Time Altitude Azimuth Distance (km) Brightness Sun altitude
Rises 01:29:34 0° 321° (NW) 3,417 5.7 -20.4°
Reaches altitude 10° 01:32:36 10° 305° (NW) 2,479 4.8 -20.2°
Maximum altitude 01:36:38 20° 260° (W) 1,854 3.7 -20.0°
Enters shadow 01:36:47 20° 257° (WSW) 1,855 3.6 -20.0°
